Find OneWeb SL0162

NORAD ID: 48056 Int'l Des: 2021-025 Owner: ONEWEBN Country: UK Constellation: oneweb operational
LEOCIRCULARPOLARONEWEB_TYPE

实时位置

正在加载3D地球...

关于 OneWeb SL0162

正在加载描述...

即将过境

Passes for default location (London). Set your location on the main map for personalized predictions.

高度历史

Loading altitude history...

两行轨道根数

1 48056U 21025Q 26125.54659756 .00000246 00000-0 63937-3 0 9999
2 48056 87.8951 328.7183 0001748 92.5794 267.5535 13.13471011247942
Epoch: May 5, 2026 • Age: 17 hours

当前状态

高度 1220.2 km
速度 7.25 km/s
星下点 67.15°N, 172.69°W
发射日期 Mar 25, 2021
运行时间 5.1 years
类型 internet

技术详情

分类 Payload
质量 148.00 kg
干质量 140.00 kg
总质量 148.00 kg
长度 1.30 m
直径 1.00 m
跨度 5.00 m
形状 Trapezoid+2 pan
制造商 ONEWUS
平台类型 ARROW
阶段状态 In Orbit
所有者/国家 ONEWEBN/UK

Most Searched